Date,TemperatureHighF,TemperatureAvgF,TemperatureLowF,DewpointHighF,DewpointAvgF,DewpointLowF,HumidityHigh,HumidityAvg,HumidityLow,PressureMaxIn,PressureMinIn,WindSpeedMaxMPH,WindSpeedAvgMPH,GustSpeedMaxMPH,PrecipitationSumIn
2013-1-16,35.1,34.2,33.8,28.0,25.4,21.5,79,70,58,30.01,29.89,21,6,21,0.01
2013-1-26,27.5,23.9,17.2,21.9,18.5,14.5,91,80,68,30.44,30.32,9,1,9,0.02
2013-1-27,33.2,26.4,16.7,31.6,22.0,14.4,94,83,74,30.45,30.03,23,6,23,0.00
2013-1-28,47.3,40.9,33.2,46.8,40.2,31.7,98,97,94,30.05,29.88,13,3,13,0.18
2013-2-1,6.4,5.4,4.7,3.4,2.6,2.0,90,88,86,30.31,30.27,1,0,1,0.00
2013-2-2,24.4,17.9,5.8,22.7,15.7,3.5,93,91,80,30.27,30.00,17,2,17,0.00
2013-2-7,40.3,32.6,26.1,31.4,27.0,22.8,88,80,69,30.18,29.85,13,4,13,0.12
2013-2-8,33.4,30.8,29.1,32.3,28.0,24.1,97,90,75,30.26,29.82,15,7,22,0.07
2013-2-22,33.3,29.1,23.0,32.5,28.0,21.5,97,96,94,29.94,29.86,18,5,18,0.02
2013-2-23,29.1,27.9,26.8,27.6,24.8,23.4,94,88,87,29.93,29.92,17,4,17,0.00
2013-4-4,53.5,46.5,40.3,29.6,25.1,22.0,63,45,29,29.98,29.96,6,1,7,0.00
2013-4-5,50.1,42.5,32.4,33.3,25.9,18.3,87,54,30,30.19,29.95,14,5,17,0.00
2013-4-6,63.5,48.5,32.2,43.5,31.4,26.2,81,54,36,30.17,29.69,21,7,21,0.00
2013-4-7,60.4,52.4,45.8,48.9,44.7,39.3,82,75,56,29.88,29.61,27,7,33,0.01
2013-4-18,63.1,60.4,58.7,61.9,59.3,57.6,97,96,95,29.64,29.46,13,6,17,0.07
2013-4-19,59.3,42.6,33.5,58.5,38.8,29.9,97,86,72,29.85,29.44,30,8,30,0.06
2013-4-20,39.7,35.0,29.4,32.4,24.1,17.8,95,66,42,30.45,29.84,22,7,23,0.13
2013-4-21,29.6,27.4,26.2,25.9,23.2,19.7,92,84,74,30.55,30.45,4,0,4,0.01
2013-5-11,55.4,47.3,40.5,49.9,41.6,35.3,96,81,64,29.98,29.81,33,6,33,0.08
2013-5-12,41.3,39.5,37.4,36.8,34.6,32.0,93,83,74,30.01,29.98,18,4,18,0.00
2013-7-5,78.9,76.2,72.7,67.6,66.5,64.8,83,72,65,30.07,30.05,6,2,6,0.00
2013-8-9,79.5,72.9,60.6,66.3,62.0,58.8,96,70,51,29.97,29.93,10,2,12,0.00
2013-8-11,77.9,70.6,57.5,65.5,60.7,56.7,97,73,52,30.09,30.00,11,2,11,0.00
2013-8-12,77.5,67.5,63.8,69.8,64.6,62.1,95,91,72,30.02,29.92,7,0,7,0.00
2013-8-17,66.2,66.1,66.1,60.8,60.7,60.5,83,82,82,30.15,30.15,0,0,0,0.00
2013-8-22,70.7,70.5,70.4,67.2,67.1,67.0,89,89,89,29.99,29.99,3,1,3,0.27
2013-9-18,79.1,75.8,68.2,62.2,61.0,59.2,77,61,52,29.98,29.94,5,1,5,0.00
2013-10-7,59.6,58.4,55.1,48.0,47.4,46.5,77,67,62,30.02,29.98,10,4,10,0.00
2013-10-12,78.6,69.7,49.9,63.4,57.8,49.1,98,68,45,30.06,29.97,14,2,14,0.00
2013-10-13,63.2,53.7,43.6,60.8,49.4,40.5,98,87,47,30.33,30.08,18,2,18,0.01
2013-10-21,45.2,44.9,44.5,33.8,33.0,31.9,64,63,62,29.90,29.90,20,6,20,0.00
2013-10-24,38.4,38.0,37.7,34.3,33.9,33.6,87,85,84,30.22,30.21,7,1,7,0.00
2013-10-25,46.6,37.9,31.8,37.7,33.1,27.8,100,85,48,30.40,30.24,14,2,18,0.00
2013-11-17,62.8,62.8,62.7,61.0,61.0,61.0,94,94,94,29.24,29.22,9,4,9,0.03
2013-11-22,36.8,32.9,29.4,33.9,30.3,26.8,92,90,84,30.42,30.40,19,3,19,0.01
2013-11-23,30.3,28.7,26.3,27.0,25.6,19.5,91,88,67,30.43,30.35,25,3,25,0.00
2013-11-29,26.9,26.9,26.9,22.4,22.4,22.4,83,83,83,30.56,30.56,0,0,0,0.00
2013-12-5,29.9,29.1,28.5,23.0,22.2,21.6,77,75,73,30.19,30.07,7,6,16,0.01
2013-12-6,28.4,25.3,23.8,22.6,18.7,15.7,81,76,71,30.45,30.20,15,6,16,0.00
2013-12-7,23.8,22.3,20.9,18.5,16.6,14.4,82,78,73,30.56,30.45,15,6,15,0.00
2013-12-8,25.8,23.2,13.7,24.3,19.3,11.4,95,85,72,30.59,29.99,17,5,17,0.00
2013-12-9,26.9,24.9,15.9,25.7,22.3,9.1,95,90,71,30.19,29.93,16,4,22,0.00
2013-12-10,22.9,13.7,2.3,13.8,6.9,-1.9,83,74,63,30.23,30.06,21,4,28,0.00
2013-12-11,23.3,19.1,16.8,20.4,15.4,10.6,91,85,74,30.38,30.30,20,4,20,0.00
2013-12-12,22.4,10.5,-0.5,18.9,3.7,-5.2,86,74,54,30.54,30.32,8,3,22,0.00
2013-12-13,14.6,10.5,9.4,8.7,7.4,6.8,89,87,77,30.32,30.23,1,0,3,0.00
2013-12-14,26.7,23.9,22.0,24.1,22.1,20.3,94,93,87,30.20,29.87,12,5,16,0.00
2013-12-15,25.2,20.6,18.6,23.7,18.7,16.6,94,92,91,29.95,29.90,16,4,18,0.00
2013-12-16,20.3,13.5,0.1,16.3,10.3,-2.6,92,87,76,30.20,30.04,5,2,10,0.00
2013-12-17,27.9,22.7,17.2,25.3,20.6,15.3,94,92,85,30.07,29.96,6,3,16,0.00
2013-12-18,26.7,24.3,20.2,22.5,18.4,16.3,86,78,69,30.20,29.91,6,3,13,0.06
2013-12-19,43.1,38.0,27.8,37.7,33.9,20.9,95,85,75,29.98,29.85,4,2,14,0.27
2013-12-20,41.2,38.6,34.9,40.7,38.0,34.4,98,98,96,29.85,29.71,3,1,8,0.01
2013-12-21,35.3,34.5,32.8,35.0,34.0,32.3,99,98,97,29.82,29.63,9,1,21,0.01
2013-12-22,35.3,33.5,30.7,34.3,32.3,29.2,100,95,93,30.04,29.52,14,4,19,0.04
2013-12-23,30.7,23.7,9.6,29.2,19.7,4.9,94,85,72,30.41,30.03,17,6,17,0.01
2013-12-24,19.6,11.1,4.7,13.2,6.9,0.6,94,83,73,30.57,30.41,14,3,14,0.00
2013-12-25,25.4,21.5,16.0,21.7,17.5,13.1,89,84,80,30.49,30.21,14,3,14,0.00
2013-12-26,31.4,26.9,21.1,29.0,22.9,16.9,95,85,73,30.32,30.10,9,2,21,0.00
2013-12-27,39.8,33.8,30.7,33.3,29.1,27.4,89,83,75,30.32,30.11,16,2,16,0.40
2013-12-28,39.8,36.9,34.0,33.2,31.9,30.5,87,82,77,30.11,30.08,9,3,18,0.07
2013-12-29,38.8,29.3,22.6,33.6,26.0,19.3,91,87,78,30.08,29.75,26,8,26,0.09
2013-12-30,22.6,17.9,13.8,19.0,12.4,9.6,86,79,71,30.30,30.08,14,4,18,0.00
2013-12-31,15.3,14.1,13.4,12.4,10.5,6.8,90,86,72,30.38,30.17,14,3,14,0.00
2014-1-1,17.1,15.0,12.6,14.5,12.6,10.2,91,90,89,30.35,30.20,14,3,14,0.00
2014-1-2,13.8,11.3,-2.8,11.7,8.2,-6.7,91,87,80,30.40,30.11,17,5,20,0.00